Terminal Aerodrome Forecast
Issued by NWS

Home | Current Version | Previous Version | Text Only | Print | Product List | Glossary On
Versions: 1 2 3 4 5 6 7 8 9 10 11 12 13 14 15 16 17 18 19 20 21 22 23 24 25 26
883
FTUS41 KBUF 032332
TAFJHW
TAF
KJHW 032332Z 0400/0424 30009KT P6SM VCSH OVC030
      TEMPO 0400/0402 6SM -SHRASN
     FM040200 30007KT P6SM VCSH OVC020
     FM040500 32006KT P6SM OVC020
     FM042200 VRB03KT P6SM OVC025
      AMD LTD TO CLD VIS AND WIND=

USA.gov is the U.S. government's official web portal to all federal, state and local government web resources and services.